Regional Weather Roundup
Issued by NWS Wakefield, VA

Home | Current Version | Previous Version | Text Only | Print | Product List | Glossary On
Versions: 1 2 3 4 5 6 7 8 9 10 11 12 13 14 15 16 17 18 19 20 21 22 23 24 25 26 27 28 29 30 31 32 33 34 35 36 37 38 39 40 41 42 43 44 45 46 47 48 49 50
000
ASUS41 KAKQ 080215
RWRAKQ

REGIONAL WEATHER ROUNDUP
NATIONAL WEATHER SERVICE WAKEFIELD VA
1000 PM EDT TUE JUL 07 2015

Note: "fair" indicates few or no clouds below 12,000 feet with no
significant weather and/or obstructions to visibility. * = Denotes
station may not report precipitation (e.g., rain,snow,etc.),
thunder or fog.

VAZ042-051-052>054-056-080300-
NORTHERN VIRGINIA

CITY           SKY/WX    TMP DP  RH WIND       PRES   REMARKS
WASH NATIONAL  PTCLDY    83  74  74 S10       30.01R
DULLES         PTCLDY    80  70  71 S8        30.01R
FORT BELVOIR   PTCLDY    77  71  83 SE3       30.01R
QUANTICO       PTCLDY    81  71  71 SW7       30.02R
FREDERICKSBRG* PTCLDY    81  72  74 S5        30.01S
STAFFORD*      PTCLDY    77  70  77 S3        30.06R
WARRENTON      PTCLDY    78  73  82 S3        30.02R
CULPEPER*      PTCLDY    76  71  83 SW3       30.03R
MANASSAS*      CLEAR     79  72  78 S3        30.01S
LEESBURG*      PTCLDY    81  73  78 S13       30.01S
WINCHESTER     PTCLDY    79  70  73 S5        30.02R
FRONT ROYAL*   FAIR      79  70  73 SW6       30.01R
LURAY*         FAIR      79  72  78 SW7       30.04R
$$

VAZ048-049-060>072-079>083-080300-
CENTRAL AND SOUTH CENTRAL VIRGINIA

CITY           SKY/WX    TMP DP  RH WIND       PRES   REMARKS
RICHMOND       PTCLDY    79  72  79 S7        30.05R
CHESTERFIELD*  NOT AVBL
PETERSBURG*    CLEAR     77  77 100 CALM      30.07R
HANOVER        PTCLDY    79  72  79 S6        30.06R
TAPPAHANNOCK*  PTCLDY    78  69  73 CALM      30.05R
QUINTON*       NOT AVBL
CHARLOTTSVILLE MOCLDY    78  69  73 SW6       30.04R
GORDONSVILLE*  FAIR      73  72  94 SW3       30.03R
ORANGE*        PTCLDY    77  72  83 CALM      30.05R HAZE
LOUISA*        PTCLDY    77  72  83 CALM      30.04R
BUMPASS*       FAIR      76  71  85 S5        30.04R
FARMVILLE*     PTCLDY    76  76  99 CALM      30.05R
CREWE*         FAIR      74  73  95 CALM      30.06R
FORT PICKETT*  FAIR      76  74  94 S5        30.07R
CHASE CITY*    FAIR      78  77  97 CALM      30.08R
CLARKSVILLE*   FAIR      75  73  94 S5        30.07R
SOUTH HILL*    CLEAR     77  75  93 CALM      30.13R
LAWRENCEVILLE* NOT AVBL
EMPORIA*         N/A     75  73  94 CALM      30.09R
$$

VAZ088>098-080300-
SOUTHEAST VIRGINIA

CITY           SKY/WX    TMP DP  RH WIND       PRES   REMARKS
NORFOLK        CLEAR     83  72  69 S7        30.06R
VIRGINIA BEACH PTCLDY    85  72  65 S7        30.06R
NORFOLK NAVAL  MOCLDY    83  73  72 S6        30.07R
WEST POINT*    CLEAR     82  74  75 S3        30.06R
SALUDA*        FAIR      78  74  86 S13G20    30.04R
NEWPORT NEWS   CLEAR     82  76  81 S7        30.06R
LANGLEY AFB    CLEAR     82  75  79 S7        30.04R
FORT EUSTIS    CLEAR     83  83 100 S5        30.04R HX  98
WILLIAMSBURG*  CLEAR     84  77  79 CALM      30.06R
HR EXEC AP*    MOCLDY    81  75  83 S9        30.08S
FRANKLIN*      CLEAR     78  75  91 S3        30.07R
WAKEFIELD      CLEAR     77  74  90 CALM      30.06R
$$

VAZ020-022-025-037-045-080300-
WEST CENTRAL AND SOUTHWEST VIRGINIA

CITY           SKY/WX    TMP DP  RH WIND       PRES   REMARKS
STAUNTON*      PTCLDY    78  69  76 S5        30.09R
WAYNESBORO*    FAIR      74  67  77 S7        30.09R
HOT SPRINGS VA MOCLDY    71  63  77 W13       30.21R
LYNCHBURG      PTCLDY    73  71  93 CALM      30.09R
DANVILLE       MOCLDY    79  71  76 S3        30.08R
SOUTH BOSTON*  FAIR      79  73  82 MISG      30.07R
MARTINSVILLE   MOCLDY    73  73 100 CALM      30.12R
ROANOKE        MOCLDY    79  68  69 CALM      30.11R
BLACKSBURG     MOCLDY    74  69  84 CALM      30.18S
DUBLIN*        MOCLDY    74  69  85 SW3       30.17R
MARION*        MOCLDY    73  66  80 CALM      30.20S
HILLSVILLE*    MOCLDY    73  66  79 S6        30.19R
RICHLANDS*     FAIR      74  65  72 SW7       30.18R
WISE*          CLOUDY    73  63  68 SW7       30.18S
ABINGDON*      MOCLDY    75  68  78 CALM      30.16R
$$

MDZ021>025-VAZ099-100-080300-
SOUTHERN MARYLAND AND THE DELMARVA PENINSULA

CITY           SKY/WX    TMP DP  RH WIND       PRES   REMARKS
PATUXENT RIVER PTCLDY    78  72  81 S5        30.03R
BAY BRIDGE APT   N/A     81  68  65 S6        30.01R
LEONARDTOWN    CLEAR     79  70  73 S3        30.05R
DOVER          CLEAR     78  72  82 S6        30.00R
GEORGETOWN     CLEAR     78  72  81 S5        30.03R
EASTON         CLEAR    N/A N/A N/A SW6       30.05R HAZE
CAMBRIDGE      CLEAR     79  70  73 CALM      30.02R
SALISBURY      CLEAR     77  74  90 S5        30.04R
OCEAN CITY     PTCLDY    79  76  90 SW7       30.04R
WALLOPS ISLAND CLEAR     78  77  96 S6        30.05R
ACCOMACK*      CLEAR     77  75  94 S5        30.05R
$$

NCZ012>017-030>032-080300-
NORTH CENTRAL AND EASTERN NORTH CAROLINA

CITY           SKY/WX    TMP DP  RH WIND       PRES   REMARKS
ROANOKE RAPIDS FAIR      77  73  88 CALM      30.08R
RALEIGH        PTCLDY    82  72  71 S9        30.09R
ELIZABETH CITY CLEAR     82  74  76 S10       30.09R
AHOSKIE*       CLEAR     78  73  84 S3        30.09R
EDENTON*         N/A     82  73  76 S14       30.10R
CURRITUCK*     CLEAR     83  72  69 S6        30.09R
KILL DEVIL HLS CLEAR     81  73  76 SW6       30.09R
MANTEO         CLEAR     81  73  78 SW12      30.11R
CAPE HATTERAS  CLEAR     78  75  90 SW10      30.13R
TARBORO*         N/A     83  73  71 S5        30.10R
GOLDSBORO      CLEAR     81  72  74 S7        30.09R
WASHINGTON     PTCLDY    80  73  81 S7        30.11R
GREENVILLE     PTCLDY    82  73  74 SW9       30.12R
NEW BERN       PTCLDY    78  73  84 S7        30.14R
WILMINGTON     CLEAR     80  73  79 SW9       30.14R
$$

VAZ048-080300-
ELSEWHERE

CITY           SKY/WX    TMP DP  RH WIND       PRES   REMARKS
HARRISBURG PA  PTCLDY    81  67  62 VRB3      29.97R
BALTIMORE      MOCLDY    80  69  69 S3        30.00R
ANNAPOLIS      CLEAR     81  69  67 S6        30.01R
ANDREWS AFB    CLEAR     78  71  77 S8        30.01R
PHILADELPHIA   PTCLDY    83  70  64 S8        30.00R
HENDERSON NC   CLEAR     78  71  77 S3        30.09R
GREENSBORO     MOCLDY    81  70  69 S6        30.09R
ROCKY MOUNT    CLEAR     82  72  71 S9        30.09R
$$

VAZ100-080300-
MARINE

STATION/POSITION TIME  TEMP    WIND        PRES    WAVE   SWELL
                       AIR SEA DIR/SP/G            HT/PER HT/PER
                 (UTC) (F)     (DEG/KT/KT) (MB)    (FT/S) (FT/S)
BRANDYWINE LGT   0100   81 76  220/ 13/ 13 1016.2R
CAPE MAY NJ      0100   77 80  150/  6/  7 1015.8R
LEWES DE         0100   82 75  200/  3/  4 1016.1R
15NM E FENWICK I 0150   77 76              1016.9R   3/ 5
OCEAN-CITY-INLET 0100   76 79  210/ 12/ 13 1016.5R
WACHAPREAGUE VA  0100   83 87  210/  7/ 10 1017.1R
GOOSES REEF MD   0200   82 80  210/  8/  8 1017.5R
COVE POINT MD    0100   82     230/  8/  8 1016.7R
SOLOMONS ISLAND  0100      81                N/A
BISHOPS HEAD MD  0100   84     210/  9/ 11 1016.2R
PINEY POINT MD   0100          220/  7/  9   N/A
CAMBRIDGE MD     0100   82 81  170/  3/  5 1015.9R
LEWISETTA VA     0100   82 81  210/  7/  8 1016.2R
RAPPAHANNOCK LGT 0100          190/  9/ 10 1017.5R
STINGRAY PT      0200   84 82  220/  8/ 10 1017.4R   0
YORK RVR RNG VA  0100   84     210/  8/  9 1016.6R
YORKTOWN VA      0100   83 82  200/  3/  4 1016.9R
JAMESTOWN VA     0200   82 84  200/  8/ 10   N/A
DOMINION TERM VA 0100   84     210/  5/  6 1017.3R
KIPTOPEKE VA     0100      85  160/  6/  7   N/A
CHES BAY BRIDGE  0100   85 80  180/  5/  6 1017.1R
CAPE HENRY VA    0100   84     190/  3/  5   N/A
CHESAPEAKE LGHT  0100   81     190/ 17/ 17 1018.0R
WILLOUBY STN VA  0100   85     240/  8/  8 1018.3R
CAPE HENRY BUOY  0128      80                N/A     3/ 4   2/14
1ST LANDING BUOY 0200      80              1017.6R
CAPE CHARLES BUO 0126      78                N/A     2/ 8   2/ 8
OFFSHORE WE BUOY 0111      79                N/A     4/ 5   2/ 8
64NM E OF VA BCH 0150   79 77  210/ 16/ 17 1018.4R   4/ 4   2/ 9
DUCK PIER NC     0100   83 73  200/ 14/ 17   N/A
44100 DUCK FRF   0124      80                N/A     3/ 4
44056 DUCK FRF   0111      77                N/A     2/ 9   2/11
OREGON INLET NC  0100   82 85  210/ 18/ 22 1019.0R
HATTERAS NC      0100   80 82  210/ 10/ 14 1019.5R
DIAMOND SHLS NC  0150   82 83  220/ 17/ 19 1020.0R   3/ 9   2/ 9
CAPE LOOKOUT NC  0200   80     220/ 11/ 16 1020.5R
$$


USA.gov is the U.S. government's official web portal to all federal, state and local government web resources and services.